Weather History for MMMV - January, 2013

Change the Weather History Date:

Wednesday, January 30, 2013

  Actual Average Record
Temperature  
Mean Temperature 62 °F -  
Max Temperature 72 °F - - ()
Min Temperature 52 °F - - ()
Degree Days  
Heating Degree Days 3    
Growing Degree Days 12 (Base 50)    
Moisture  
Dew Point 28 °F    
Average Humidity 24    
Maximum Humidity 41    
Minimum Humidity 7    
Precipitation  
Precipitation 0.00 in - - ()
Sea Level Pressure  
Sea Level Pressure 30.10 in    
Wind  
Wind Speed 4 mph ()    
Max Wind Speed 12 mph    
Max Gust Speed -    
Visibility 9.0 miles    
Events      
T = Trace of Precipitation, MM = Missing Value Source: Averaged Metar Reports

Daily Weather History Graph

Daily Weather History Graph

Search for Another Location

Airport or City:

Trip Planner

Search our weather history database for the weather conditions in past years. The results will help you decide how hot, cold, wet, or windy it might be!

Date:

Astronomy

Jan. 30, 2013 Rise Set
Actual Time 7:31 AM CST 6:26 PM CST
Civil Twilight 7:07 AM CST 6:50 PM CST
Nautical Twilight 6:39 AM CST 7:18 PM CST
Astronomical Twilight 6:12 AM CST 7:46 PM CST
Moon 9:58 PM CST 9:25 AM CST
Length of Visible Light 11h 43m
Length of Day
10h 54m
Waning Gibbous, 87% of the Moon is Illuminated
Jan 30
Waning Gibbous
Feb 3
Last Quarter
Feb 10
New
Feb 17
First Quarter
Feb 25
Full

Hourly Weather History & Observations

Time (CST) Temp. Dew Point Humidity Pressure Visibility Wind Dir Wind Speed Gust Speed Precip Events Conditions
2:50 AM 59 °F 26 °F 17% 29.84 in 2 mi NNW 4.5 mph - -  
5:50 AM 54 °F 18 °F 13% 29.99 in 2 mi ENE 4.5 mph - -  
6:40 AM 55.4 °F 32.0 °F 41% 30.05 in 10.0 mi East 5.8 mph - N/A   Scattered Clouds
7:40 AM 55.4 °F 32.0 °F 41% 30.11 in 10.0 mi ENE 5.8 mph - N/A   Scattered Clouds
8:41 AM 59.0 °F 32.0 °F 36% 30.15 in 12.0 mi Calm Calm - N/A   Partly Cloudy
8:50 AM 54 °F 19 °F 14% 30.18 in 7 mi East 4.5 mph - -  
9:47 AM 60.8 °F 32.0 °F 34% 30.15 in 12.0 mi Calm Calm - N/A   Scattered Clouds
11:47 AM 68.0 °F 32.0 °F 26% 30.15 in 12.0 mi Calm Calm - N/A   Scattered Clouds
11:55 AM 65 °F 22 °F 10% 30.22 in 7 mi NE 4.5 mph - -   Partly Cloudy
12:40 PM 68.0 °F 32.0 °F 26% 30.14 in 12.0 mi NW 11.5 mph - N/A   Scattered Clouds
1:40 PM 71.6 °F 32.0 °F 23% 30.11 in 12.0 mi NW 8.1 mph - N/A   Scattered Clouds
2:40 PM 71.6 °F 32.0 °F 23% 30.08 in 12.0 mi NNE 5.8 mph - N/A   Scattered Clouds
2:50 PM 71 °F 21 °F 7% 30.12 in 7 mi WNW 6.7 mph - -  
3:40 PM 73.4 °F 32.0 °F 22% 30.06 in 12.0 mi North 6.9 mph - N/A   Scattered Clouds
4:40 PM 73.4 °F 32.0 °F 22% 30.06 in 12.0 mi North 6.9 mph - N/A   Scattered Clouds
5:40 PM 69.8 °F 32.0 °F 25% 30.07 in 12.0 mi North 6.9 mph - N/A   Mostly Cloudy
5:50 PM 68 °F 22 °F 9% 30.10 in 7 mi North 4.5 mph - -   Partly Cloudy
6:47 PM 62.6 °F 32.0 °F 32% 30.08 in 12.0 mi North 5.8 mph - N/A   Mostly Cloudy
7:40 PM 59.0 °F 32.0 °F 36% 30.11 in 12.0 mi NNE 6.9 mph - N/A   Mostly Cloudy
8:50 PM 60 °F 21 °F 12% 30.14 in 2 mi SSE 4.5 mph - -  
11:50 PM 52 °F 30 °F 30% 30.17 in 2 mi SSW 2.2 mph - -